Wilmington, OH

5:55 AM EDT on October 19, 2017 (GMT -0400)
Airborne

Weather History for KILN - October, 2013

Change the Weather History Date:

Wednesday, October 30, 2013

  Actual Average (KFFO) Record (KFFO)
Temperature  
Mean Temperature 56 °F -  
Max Temperature 63 °F 57 °F 78 °F (2004)
Min Temperature 50 °F 38 °F 26 °F (2008)
Degree Days  
Heating Degree Days 9    
Growing Degree Days 6 (Base 50)    
Moisture  
Dew Point 56 °F    
Average Humidity 97    
Maximum Humidity 100    
Minimum Humidity 86    
Precipitation  
Precipitation 0.10 in - - ()
Sea Level Pressure  
Sea Level Pressure 30.14 in    
Wind  
Wind Speed 3 mph (SSE)    
Max Wind Speed 9 mph    
Max Gust Speed -    
Visibility 3 miles    
Events Fog , Rain    
Averages and records for this station are not official NWS values.
T = Trace of Precipitation, MM = Missing Value Source: NWS Daily Summary

Daily Weather History Graph

Daily Weather History Graph

Search for Another Location

Airport or City:

Trip Planner

Search our weather history database for the weather conditions in past years. The results will help you decide how hot, cold, wet, or windy it might be!

Date:

Astronomy

Oct. 30, 2013 Rise Set
Actual Time 8:01 AM EDT 6:35 PM EDT
Civil Twilight 7:33 AM EDT 7:03 PM EDT
Nautical Twilight 7:01 AM EDT 7:35 PM EDT
Astronomical Twilight 6:30 AM EDT 8:06 PM EDT
Moon 3:50 AM EDT (10/30) 4:19 PM EDT (10/30)
Length of Visible Light 11h 29m
Length of Day
10h 34m
Waning Crescent, 17% of the Moon is Illuminated
Oct 30
Waning Crescent
Nov 3
New
Nov 10
First Quarter
Nov 17
Full
Nov 25
Last Quarter

Hourly Weather History & Observations

Time (EDT) Temp. Dew Point Humidity Pressure Visibility Wind Dir Wind Speed Gust Speed Precip Events Conditions
12:54 AM 50.0 °F 46.0 °F 86% 30.23 in 7.0 mi ESE 3.5 mph - 0.00 in Rain Light Rain
1:54 AM 51.1 °F 46.9 °F 86% 30.21 in 8.0 mi Calm Calm - 0.01 in Rain Light Rain
2:54 AM 51.1 °F 48.9 °F 92% 30.19 in 5.0 mi SE 3.5 mph - 0.03 in Rain Light Rain
3:54 AM 51.1 °F 50.0 °F 96% 30.19 in 2.0 mi Calm Calm - 0.04 in Rain Light Rain
4:25 AM 51.8 °F 51.8 °F 100% 30.15 in 3.0 mi ESE 3.5 mph - 0.00 in Rain Light Rain
4:54 AM 52.0 °F 51.1 °F 97% 30.17 in 3.0 mi SE 3.5 mph - 0.01 in Rain Light Rain
5:09 AM 51.8 °F 51.8 °F 100% 30.14 in 2.5 mi SE 3.5 mph - 0.01 in Rain Light Rain
5:35 AM 51.8 °F 51.8 °F 100% 30.15 in 3.0 mi Calm Calm - 0.01 in   Overcast
5:49 AM 51.8 °F 51.8 °F 100% 30.15 in 3.0 mi Calm Calm - 0.01 in Rain Light Rain
5:54 AM 52.0 °F 52.0 °F 100% 30.17 in 3.0 mi Calm Calm - 0.01 in Rain Light Rain
6:02 AM 51.8 °F 51.8 °F 100% 30.15 in 3.0 mi SSE 3.5 mph - 0.00 in Rain Light Rain
6:09 AM 51.8 °F 51.8 °F 100% 30.16 in 2.5 mi South 4.6 mph - 0.00 in Rain Light Rain
6:16 AM 51.8 °F 51.8 °F 100% 30.16 in 3.0 mi South 3.5 mph - 0.00 in   Overcast
6:27 AM 51.8 °F 51.8 °F 100% 30.16 in 3.0 mi SSE 3.5 mph - 0.00 in   Overcast
6:35 AM 51.8 °F 51.8 °F 100% 30.16 in 3.0 mi Calm Calm - 0.00 in Rain Light Rain
6:52 AM 51.8 °F 51.8 °F 100% 30.16 in 3.0 mi South 6.9 mph - 0.00 in   Overcast
6:54 AM 52.0 °F 52.0 °F 100% 30.18 in 3.0 mi South 5.8 mph - 0.00 in   Overcast
7:16 AM 51.8 °F 51.8 °F 100% 30.15 in 3.0 mi South 4.6 mph - N/A   Overcast
7:54 AM 52.0 °F 52.0 °F 100% 30.17 in 3.0 mi South 4.6 mph - N/A   Mostly Cloudy
8:03 AM 51.8 °F 51.8 °F 100% 30.14 in 3.0 mi South 3.5 mph - N/A   Mostly Cloudy
8:23 AM 51.8 °F 51.8 °F 100% 30.15 in 1.8 mi South 5.8 mph - N/A   Overcast
8:43 AM 53.6 °F 51.8 °F 94% 30.15 in 0.2 mi South 5.8 mph - N/A Fog Fog
8:54 AM 53.1 °F 53.1 °F 100% 30.19 in 0.2 mi South 4.6 mph - N/A Fog Fog
9:33 AM 53.6 °F 53.6 °F 100% 30.18 in 0.5 mi Calm Calm - N/A Fog Fog
9:54 AM 54.0 °F 54.0 °F 100% 30.21 in 0.8 mi Calm Calm - N/A   Mist
10:24 AM 55.4 °F 55.4 °F 100% 30.18 in 1.0 mi South 3.5 mph - N/A   Overcast
10:42 AM 55.4 °F 55.4 °F 100% 30.19 in 2.5 mi SSW 4.6 mph - N/A   Overcast
10:54 AM 55.9 °F 55.0 °F 97% 30.20 in 2.5 mi South 4.6 mph - N/A   Overcast
11:20 AM 57.2 °F 55.4 °F 94% 30.18 in 3.0 mi Calm Calm - N/A   Overcast
11:54 AM 57.9 °F 55.9 °F 93% 30.19 in 4.0 mi Calm Calm - N/A   Overcast
12:49 PM 59.0 °F 57.2 °F 94% 30.16 in 7.0 mi Calm Calm - N/A   Overcast
12:54 PM 59.0 °F 57.0 °F 93% 30.18 in 7.0 mi SE 3.5 mph - N/A   Overcast
1:54 PM 59.0 °F 57.0 °F 93% 30.15 in 5.0 mi SSE 3.5 mph - N/A   Overcast
2:54 PM 60.1 °F 57.9 °F 93% 30.12 in 2.5 mi SE 3.5 mph - N/A   Overcast
3:03 PM 60.8 °F 57.2 °F 88% 30.10 in 3.0 mi South 4.6 mph - N/A   Overcast
3:17 PM 60.8 °F 59.0 °F 94% 30.11 in 2.0 mi South 5.8 mph - N/A   Overcast
3:27 PM 60.8 °F 59.0 °F 94% 30.10 in 1.8 mi South 5.8 mph - 0.00 in Rain Light Rain
3:37 PM 60.8 °F 59.0 °F 94% 30.11 in 2.0 mi South 8.1 mph - 0.00 in   Overcast
3:54 PM 60.1 °F 59.0 °F 96% 30.12 in 1.8 mi South 3.5 mph - 0.00 in   Overcast
4:21 PM 60.8 °F 59.0 °F 94% 30.11 in 2.5 mi South 3.5 mph - N/A   Overcast
4:40 PM 60.8 °F 59.0 °F 94% 30.10 in 3.0 mi SSE 5.8 mph - N/A   Overcast
4:54 PM 60.1 °F 59.0 °F 96% 30.12 in 4.0 mi SSE 5.8 mph - N/A   Overcast
5:20 PM 60.8 °F 59.0 °F 94% 30.09 in 2.5 mi SSE 4.6 mph - N/A   Overcast
5:33 PM 60.8 °F 59.0 °F 94% 30.09 in 1.8 mi SSE 5.8 mph - N/A   Overcast
5:54 PM 60.1 °F 59.0 °F 96% 30.12 in 1.5 mi South 4.6 mph - N/A   Overcast
6:19 PM 60.8 °F 59.0 °F 94% 30.09 in 0.8 mi SSE 4.6 mph - N/A   Overcast
6:54 PM 60.1 °F 60.1 °F 100% 30.11 in 0.8 mi SSE 5.8 mph - N/A   Mist
7:46 PM 60.8 °F 60.8 °F 100% 30.09 in 1.2 mi SSE 6.9 mph - N/A   Overcast
7:54 PM 60.1 °F 60.1 °F 100% 30.11 in 1.8 mi SSE 4.6 mph - N/A   Overcast
8:06 PM 60.8 °F 60.8 °F 100% 30.09 in 2.0 mi SSE 4.6 mph - N/A   Overcast
8:54 PM 61.0 °F 60.1 °F 97% 30.10 in 2.5 mi South 5.8 mph - N/A   Overcast
9:20 PM 60.8 °F 60.8 °F 100% 30.07 in 2.5 mi South 5.8 mph - N/A   Overcast
9:33 PM 60.8 °F 60.8 °F 100% 30.07 in 3.0 mi SSE 6.9 mph - N/A   Overcast
9:52 PM 62.6 °F 60.8 °F 94% 30.06 in 3.0 mi SSE 6.9 mph - N/A   Overcast
9:54 PM 62.1 °F 61.0 °F 96% 30.07 in 3.0 mi SSE 6.9 mph - N/A   Overcast
10:17 PM 62.6 °F 60.8 °F 94% 30.05 in 4.0 mi SSE 5.8 mph - N/A   Overcast
10:54 PM 62.1 °F 61.0 °F 96% 30.06 in 4.0 mi SSE 6.9 mph - N/A   Overcast
11:54 PM 62.1 °F 60.1 °F 93% 30.03 in 4.0 mi South 9.2 mph - N/A   Clear